Date String (YYYY-MM-DD hh:mm:ss) UTC,Instrument flags,Ambient pressure (hPa),Sample flow (lpm),Bypass flow (lpm),Sample temperature (°C),Ambient temperature (°C),ASC tube jacket temperature (°C),LED temperature (°C),Box temperature (°C),Sample RH (%),Span deviation,Mass concentration (μg/m³),Mass concentration (μg/m³),Mass concentration (μg/m³)
DateTimeUTC,F1_M11,P_M11,Q1_M11,Q2_M11,T1_M11,T2_M11,T3_M11,T4_M11,T5_M11,U1_M11,ZSPAN_M11,X2_M11,X0_M11,X1_M11
2022-10-11 20:00:00,,0820.2,5.01,0.00,29.8,28.3,00.0,38.4,31.8,09.7,0000.0,0005.27,0011.57,0004.70
2022-10-11 20:01:00,,0820.2,5.01,0.00,29.8,28.4,00.0,38.4,31.9,09.7,0000.0,0005.21,0011.47,0004.68
2022-10-11 20:02:00,,0820.3,4.99,0.00,29.8,28.0,00.0,38.4,31.9,09.8,0000.0,0005.16,0010.63,0004.66
2022-10-11 20:03:00,,0820.2,5.02,0.00,29.8,26.7,00.0,38.4,31.8,10.0,0000.0,0005.13,0010.26,0004.65
2022-10-11 20:04:00,,0820.2,4.99,0.00,29.8,26.5,00.0,38.3,31.7,09.7,0000.0,0005.13,0009.82,0004.63
2022-10-11 20:05:00,,0820.2,5.00,0.00,29.7,26.7,00.0,38.3,31.6,09.9,0000.0,0005.12,0009.84,0004.63
2022-10-11 20:06:00,,0820.2,5.01,0.00,29.7,27.0,00.0,38.3,31.6,09.9,0000.0,0005.10,0009.70,0004.61
2022-10-11 20:07:00,,0820.1,4.99,0.00,29.7,27.3,00.0,38.3,31.6,10.0,0000.0,0005.11,0009.64,0004.60
2022-10-11 20:08:00,,0820.0,5.00,0.00,29.7,27.5,00.0,38.3,31.7,10.0,0000.0,0005.07,0009.38,0004.58
2022-10-11 20:09:00,,0819.9,5.01,0.00,29.7,27.7,00.0,38.3,31.7,09.9,0000.0,0005.03,0008.86,0004.56
2022-10-11 20:10:00,,0820.0,4.99,0.00,29.7,27.8,00.0,38.3,31.7,09.8,0000.0,0004.98,0008.53,0004.53
2022-10-11 20:11:00,,0819.9,5.01,0.00,29.7,28.0,00.0,38.3,31.7,09.9,0000.0,0004.97,0008.59,0004.50
2022-10-11 20:12:00,,0819.9,5.01,0.00,29.7,28.1,00.0,38.4,31.8,09.7,0000.0,0004.98,0008.51,0004.49
2022-10-11 20:13:00,,0819.9,4.99,0.00,29.7,28.2,00.0,38.4,31.8,09.8,0000.0,0004.97,0008.51,0004.48
2022-10-11 20:14:00,,0819.9,4.99,0.00,29.8,28.2,00.0,38.4,31.8,09.7,0000.0,0004.94,0008.62,0004.46
2022-10-11 20:15:00,,0819.9,5.01,0.00,29.8,28.3,00.0,38.4,31.8,09.7,0000.0,0004.92,0008.57,0004.44
2022-10-11 20:16:00,,0819.9,5.00,0.00,29.8,28.4,00.0,38.4,31.9,09.8,0000.0,0004.90,0008.69,0004.43
2022-10-11 20:17:00,,0819.9,5.00,0.00,29.8,28.4,00.0,38.4,31.9,10.0,0000.0,0004.91,0008.94,0004.42
2022-10-11 20:18:00,,0819.9,5.01,0.00,29.9,28.5,00.0,38.5,31.9,09.8,0000.0,0004.82,0008.49,0004.40
2022-10-11 20:19:00,,0819.9,5.05,0.00,29.9,26.7,00.0,38.4,31.8,09.8,0000.0,0004.80,0009.25,0004.37
2022-10-11 20:20:00,,0819.9,5.00,0.00,29.8,26.5,00.0,38.4,31.8,09.8,0000.0,0004.80,0009.21,0004.37
2022-10-11 20:21:00,,0819.9,5.01,0.00,29.8,26.6,00.0,38.4,31.7,09.8,0000.0,0004.80,0009.23,0004.36
2022-10-11 20:22:00,,0819.9,5.00,0.00,29.8,26.9,00.0,38.4,31.7,09.9,0000.0,0004.77,0009.14,0004.36
2022-10-11 20:23:00,,0819.9,4.99,0.00,29.8,27.1,00.0,38.4,31.7,09.9,0000.0,0004.73,0009.23,0004.35
2022-10-11 20:24:00,,0819.9,5.00,0.00,29.8,27.4,00.0,38.4,31.7,10.0,0000.0,0004.72,0009.41,0004.34
2022-10-11 20:25:00,,0819.9,5.01,0.00,29.8,27.6,00.0,38.4,31.7,10.1,0000.0,0004.74,0009.29,0004.34
2022-10-11 20:26:00,,0819.9,5.00,0.00,29.8,27.8,00.0,38.4,31.8,10.0,0000.0,0004.74,0009.42,0004.33
2022-10-11 20:27:00,,0819.9,4.99,0.00,29.8,28.0,00.0,38.4,31.9,09.9,0000.0,0004.75,0009.37,0004.32
2022-10-11 20:28:00,,0819.9,4.99,0.00,29.8,28.1,00.0,38.4,31.9,09.9,0000.0,0004.75,0009.16,0004.32
2022-10-11 20:29:00,,0819.9,5.01,0.00,29.9,28.3,00.0,38.4,31.9,09.8,0000.0,0004.78,0009.25,0004.33
2022-10-11 20:30:00,,0820.0,4.99,0.00,29.9,28.4,00.0,38.4,32.0,09.9,0000.0,0004.79,0008.97,0004.33
2022-10-11 20:31:00,,0820.0,5.00,0.00,29.9,28.5,00.0,38.5,32.0,10.0,0000.0,0004.78,0008.61,0004.32
2022-10-11 20:32:00,,0819.9,5.01,0.00,29.9,28.5,00.0,38.5,32.0,09.8,0000.0,0004.79,0008.62,0004.33
2022-10-11 20:33:00,,0819.9,4.99,0.00,29.9,28.5,00.0,38.5,31.9,09.8,0000.0,0004.82,0008.66,0004.35
2022-10-11 20:34:00,,0820.0,4.99,0.00,29.9,28.5,00.0,38.5,31.8,09.9,0000.0,0004.88,0008.59,0004.38
2022-10-11 20:35:00,,0819.9,5.00,0.00,29.8,28.5,00.0,38.5,31.7,10.0,0000.0,0004.90,0008.35,0004.41
2022-10-11 20:36:00,,0819.9,5.00,0.00,29.7,28.5,00.0,38.5,31.6,10.0,0000.0,0004.90,0008.51,0004.43
2022-10-11 20:37:00,,0819.9,4.99,0.00,29.7,28.5,00.0,38.5,31.5,09.9,0000.0,0004.91,0008.75,0004.46
2022-10-11 20:38:00,,0819.8,5.01,0.00,29.6,28.5,00.0,38.5,31.4,10.0,0000.0,0004.92,0009.51,0004.48
2022-10-11 20:39:00,,0819.8,5.00,0.00,29.6,28.5,00.0,38.4,31.3,10.1,0000.0,0004.95,0009.65,0004.49
2022-10-11 20:40:00,,0819.8,4.99,0.00,29.5,28.4,00.0,38.4,31.2,10.3,0000.0,0004.98,0009.97,0004.51
2022-10-11 20:41:00,,0819.8,5.00,0.00,29.5,28.4,00.0,38.4,31.2,10.2,0000.0,0004.98,0010.46,0004.53
2022-10-11 20:42:00,,0819.8,4.99,0.00,29.4,28.4,00.0,38.4,31.2,10.4,0000.0,0005.01,0010.91,0004.55
2022-10-11 20:43:00,,0819.8,5.00,0.00,29.4,28.3,00.0,38.3,31.2,10.3,0000.0,0005.05,0011.43,0004.56
2022-10-11 20:44:00,,0819.7,4.99,0.00,29.4,28.2,00.0,38.3,31.2,10.3,0000.0,0005.03,0012.28,0004.55
2022-10-11 20:45:00,,0819.8,5.01,0.00,29.4,28.2,00.0,38.3,31.1,10.1,0000.0,0005.00,0012.22,0004.53
2022-10-11 20:46:00,,0819.8,4.99,0.00,29.4,28.2,00.0,38.3,31.2,10.0,0000.0,0004.96,0012.25,0004.51
2022-10-11 20:47:00,,0819.7,4.99,0.00,29.3,28.1,00.0,38.2,31.1,10.1,0000.0,0004.97,0012.15,0004.50
2022-10-11 20:48:00,,0819.6,5.01,0.00,29.3,28.1,00.0,38.2,31.1,09.7,0000.0,0004.94,0011.74,0004.48
2022-10-11 20:49:00,,0819.6,5.00,0.00,29.3,28.1,00.0,38.2,31.1,09.4,0000.0,0004.91,0010.86,0004.46
2022-10-11 20:50:00,,0819.7,4.99,0.00,29.3,28.1,00.0,38.2,31.1,09.5,0000.0,0004.85,0010.57,0004.44
2022-10-11 20:51:00,,0819.7,5.01,0.00,29.3,28.0,00.0,38.2,31.1,09.9,0000.0,0004.79,0010.09,0004.41
2022-10-11 20:52:00,,0819.7,5.00,0.00,29.3,28.0,00.0,38.1,31.1,10.1,0000.0,0004.79,0009.58,0004.40
2022-10-11 20:53:00,,0819.6,4.99,0.00,29.3,28.0,00.0,38.1,31.1,10.0,0000.0,0004.79,0009.36,0004.40
2022-10-11 20:54:00,,0819.6,5.01,0.00,29.2,28.0,00.0,38.1,31.0,09.3,0000.0,0004.74,0008.79,0004.38
2022-10-11 20:55:00,,0819.6,5.00,0.00,29.2,28.0,00.0,38.1,31.0,09.4,0000.0,0004.74,0008.01,0004.37
2022-10-11 20:56:00,,0819.6,4.99,0.00,29.2,28.1,00.0,38.1,31.0,09.4,0000.0,0004.75,0008.04,0004.35
2022-10-11 20:57:00,,0819.6,5.01,0.00,29.2,28.1,00.0,38.1,31.0,09.8,0000.0,0004.77,0008.43,0004.35
2022-10-11 20:58:00,,0819.6,4.99,0.00,29.2,28.1,00.0,38.1,30.9,09.9,0000.0,0004.74,0008.56,0004.34
2022-10-11 20:59:00,,0819.6,5.01,0.00,29.1,28.2,00.0,38.0,30.9,09.7,0000.0,0004.78,0008.72,0004.34
